| time (UTC) | temp F | wind direction | speed MPH | gust MPH | rain 1hr in | rain 24hr in | rain mn in | humidity % | barometer mb |
| 20260507231541 | 64 | 5 | 4.0 | 10.0 | 0.00 | 0.00 | 0.00 | 36 | 1005.9 |
| 20260507231039 | 64 | 348 | 11.0 | 18.0 | 0.00 | 0.00 | 0.00 | 35 | 1005.9 |
| 20260507230535 | 64 | 92 | 2.0 | 11.0 | 0.00 | 0.00 | 0.00 | 36 | 1005.7 |
| 20260507230032 | 63 | 347 | 7.0 | 15.0 | 0.00 | 0.00 | 0.00 | 36 | 1005.8 |
| 20260507225527 | 63 | 286 | 3.0 | 8.0 | 0.00 | 0.00 | 0.00 | 37 | 1005.6 |
| 20260507225024 | 64 | 353 | 9.0 | 13.0 | 0.00 | 0.00 | 0.00 | 37 | 1005.7 |
| 20260507224519 | 65 | 351 | 11.0 | 15.0 | 0.00 | 0.00 | 0.00 | 36 | 1005.5 |
| 20260507224016 | 65 | 140 | 5.0 | 9.0 | 0.00 | 0.00 | 0.00 | 36 | 1005.3 |
| 20260507223512 | 66 | 151 | 2.0 | 7.0 | 0.00 | 0.00 | 0.00 | 35 | 1005.3 |
| 20260507223010 | 67 | 333 | 4.0 | 7.0 | 0.00 | 0.00 | 0.00 | 36 | 1005.2 |
| 20260507222507 | 66 | 359 | 7.0 | 10.0 | 0.00 | 0.00 | 0.00 | 37 | 1005.3 |
| 20260507222003 | 65 | 176 | 6.0 | 15.0 | 0.00 | 0.00 | 0.00 | 40 | 1005.0 |
| 20260507221459 | 64 | 299 | 4.0 | 7.0 | 0.00 | 0.00 | 0.00 | 48 | 1005.2 |
| 20260507220956 | 64 | 317 | 6.0 | 13.0 | 0.00 | 0.00 | 0.00 | 52 | 1004.9 |
| 20260507220454 | 64 | 138 | 2.0 | 3.0 | 0.00 | 0.00 | 0.00 | 55 | 1004.9 |
| 20260507215950 | 65 | 240 | 4.0 | 4.0 | 0.00 | 0.00 | 0.00 | 55 | 1004.7 |
| 20260507215447 | 64 | 146 | 4.0 | 7.0 | 0.00 | 0.00 | 0.00 | 57 | 1004.6 |
| 20260507214944 | 66 | 126 | 5.0 | 7.0 | 0.00 | 0.00 | 0.00 | 55 | 1004.8 |
| 20260507214442 | 64 | 187 | 2.0 | 4.0 | 0.00 | 0.00 | 0.00 | 56 | 1004.8 |
| 20260507213937 | 63 | 201 | 3.0 | 4.0 | 0.00 | 0.00 | 0.00 | 58 | 1004.6 |
| 20260507213434 | 63 | 147 | 4.0 | 6.0 | 0.00 | 0.00 | 0.00 | 58 | 1004.9 |
| 20260507212931 | 63 | 258 | 4.0 | 6.0 | 0.00 | 0.00 | 0.00 | 58 | 1004.7 |
| 20260507212426 | 63 | 133 | 4.0 | 8.0 | 0.00 | 0.00 | 0.00 | 59 | 1004.7 |
| 20260507211924 | 64 | 209 | 5.0 | 8.0 | 0.00 | 0.00 | 0.00 | 58 | 1004.6 |
| 20260507211420 | 64 | 213 | 4.0 | 7.0 | 0.00 | 0.00 | 0.00 | 56 | 1004.4 |
| 20260507210917 | 64 | 218 | 4.0 | 7.0 | 0.00 | 0.00 | 0.00 | 56 | 1004.7 |
| 20260507210414 | 64 | 242 | 5.0 | 9.0 | 0.00 | 0.00 | 0.00 | 55 | 1004.8 |
| 20260507205910 | 63 | 86 | 3.0 | 7.0 | 0.00 | 0.00 | 0.00 | 56 | 1004.7 |
| 20260507205408 | 64 | 332 | 6.0 | 8.0 | 0.00 | 0.00 | 0.00 | 55 | 1004.7 |
| 20260507204904 | 64 | 340 | 6.0 | 10.0 | 0.00 | 0.00 | 0.00 | 55 | 1004.7 |
| 20260507204400 | 65 | 268 | 10.0 | 13.0 | 0.00 | 0.00 | 0.00 | 55 | 1004.7 |
| 20260507203858 | 65 | 125 | 7.0 | 11.0 | 0.00 | 0.00 | 0.00 | 54 | 1004.5 |
| 20260507203356 | 66 | 180 | 2.0 | 7.0 | 0.00 | 0.00 | 0.00 | 53 | 1004.7 |
| 20260507202852 | 65 | 125 | 6.0 | 10.0 | 0.00 | 0.00 | 0.00 | 54 | 1004.5 |
| 20260507202349 | 67 | 260 | 6.0 | 8.0 | 0.00 | 0.00 | 0.00 | 52 | 1004.6 |
| 20260507201844 | 65 | 156 | 1.0 | 3.0 | 0.00 | 0.00 | 0.00 | 56 | 1004.8 |
| 20260507201340 | 65 | 240 | 7.0 | 9.0 | 0.00 | 0.00 | 0.00 | 53 | 1004.7 |
| 20260507200836 | 66 | 359 | 7.0 | 9.0 | 0.00 | 0.00 | 0.00 | 50 | 1004.7 |
| 20260507200333 | 65 | 197 | 1.0 | 2.0 | 0.00 | 0.00 | 0.00 | 52 | 1004.8 |
| 20260507195828 | 68 | 212 | 6.0 | 9.0 | 0.00 | 0.00 | 0.00 | 50 | 1005.0 |
| 20260507195326 | 67 | 164 | 0.0 | 2.0 | 0.00 | 0.00 | 0.00 | 50 | 1005.0 |
| 20260507194823 | 67 | 138 | 2.0 | 3.0 | 0.00 | 0.00 | 0.00 | 51 | 1005.1 |
| 20260507194319 | 64 | 170 | 4.0 | 6.0 | 0.00 | 0.00 | 0.00 | 52 | 1005.1 |
| 20260507193816 | 63 | 216 | 1.0 | 4.0 | 0.00 | 0.00 | 0.00 | 53 | 1005.2 |
| 20260507193313 | 63 | 144 | 1.0 | 8.0 | 0.00 | 0.00 | 0.00 | 54 | 1005.1 |
| 20260507192808 | 66 | 127 | 7.0 | 8.0 | 0.00 | 0.00 | 0.00 | 50 | 1005.4 |
| 20260507192306 | 64 | 297 | 4.0 | 6.0 | 0.00 | 0.00 | 0.00 | 54 | 1005.5 |
| 20260507191802 | 64 | 239 | 5.0 | 7.0 | 0.00 | 0.00 | 0.00 | 50 | 1005.4 |
| 20260507191259 | 63 | 269 | 7.0 | 9.0 | 0.00 | 0.00 | 0.00 | 52 | 1005.6 |
| 20260507190755 | 65 | 235 | 4.0 | 8.0 | 0.00 | 0.00 | 0.00 | 49 | 1005.5 |
| 20260507190254 | 63 | 209 | 3.0 | 7.0 | 0.00 | 0.00 | 0.00 | 53 | 1005.6 |
| 20260507185752 | 62 | 243 | 7.0 | 9.0 | 0.00 | 0.00 | 0.00 | 56 | 1005.9 |
| 20260507185249 | 63 | 251 | 6.0 | 8.0 | 0.00 | 0.00 | 0.00 | 52 | 1005.8 |
| 20260507184746 | 62 | 106 | 4.0 | 8.0 | 0.00 | 0.00 | 0.00 | 52 | 1005.7 |
| 20260507184244 | 65 | 129 | 5.0 | 7.0 | 0.00 | 0.00 | 0.00 | 51 | 1005.8 |
| 20260507183741 | 63 | 144 | 0.0 | 2.0 | 0.00 | 0.00 | 0.00 | 51 | 1005.8 |
| 20260507183237 | 62 | 125 | 5.0 | 7.0 | 0.00 | 0.00 | 0.00 | 54 | 1005.9 |
| 20260507182735 | 62 | 140 | 4.0 | 7.0 | 0.00 | 0.00 | 0.00 | 54 | 1006.0 |
| 20260507182230 | 62 | 264 | 5.0 | 8.0 | 0.00 | 0.00 | 0.00 | 55 | 1006.1 |
| 20260507181727 | 61 | 151 | 1.0 | 3.0 | 0.00 | 0.00 | 0.00 | 54 | 1005.9 |
| 20260507181223 | 61 | 166 | 2.0 | 3.0 | 0.00 | 0.00 | 0.00 | 54 | 1006.2 |
| 20260507180720 | 62 | 178 | 3.0 | 4.0 | 0.00 | 0.00 | 0.00 | 57 | 1006.0 |
| 20260507180217 | 62 | 146 | 2.0 | 4.0 | 0.00 | 0.00 | 0.00 | 54 | 1006.3 |
| 20260507175712 | 62 | 156 | 5.0 | 6.0 | 0.00 | 0.00 | 0.00 | 54 | 1006.3 |
| 20260507175210 | 62 | 156 | 3.0 | 4.0 | 0.00 | 0.00 | 0.00 | 53 | 1006.3 |
| 20260507174707 | 62 | 171 | 6.0 | 10.0 | 0.00 | 0.00 | 0.00 | 53 | 1006.5 |
| 20260507174205 | 62 | 119 | 4.0 | 7.0 | 0.00 | 0.00 | 0.00 | 54 | 1006.5 |
| 20260507173702 | 62 | 137 | 2.0 | 3.0 | 0.00 | 0.00 | 0.00 | 51 | 1006.6 |
| 20260507173159 | 62 | 181 | 1.0 | 1.0 | 0.00 | 0.00 | 0.00 | 51 | 1006.6 |
| 20260507172656 | 62 | 162 | 4.0 | 4.0 | 0.00 | 0.00 | 0.00 | 51 | 1006.8 |
| 20260507172153 | 61 | 164 | 2.0 | 3.0 | 0.00 | 0.00 | 0.00 | 51 | 1006.7 |
| 20260507171652 | 62 | 159 | 4.0 | 4.0 | 0.00 | 0.00 | 0.00 | 50 | 1006.8 |
| 20260507171150 | 63 | 109 | 2.0 | 3.0 | 0.00 | 0.00 | 0.00 | 48 | 1007.0 |
| 20260507170647 | 63 | 146 | 0.0 | 1.0 | 0.00 | 0.00 | 0.00 | 49 | 1006.8 |
| 20260507170144 | 63 | 159 | 1.0 | 3.0 | 0.00 | 0.00 | 0.00 | 48 | 1007.1 |
| 20260507165639 | 62 | 127 | 0.0 | 1.0 | 0.00 | 0.00 | 0.00 | 50 | 1007.3 |
| 20260507165136 | 63 | 65 | 2.0 | 4.0 | 0.00 | 0.00 | 0.00 | 49 | 1007.3 |
| 20260507164632 | 63 | 150 | 1.0 | 2.0 | 0.00 | 0.00 | 0.00 | 50 | 1007.3 |
| 20260507164129 | 62 | 119 | 3.0 | 4.0 | 0.00 | 0.00 | 0.00 | 51 | 1007.6 |
| 20260507163626 | 63 | 101 | 2.0 | 6.0 | 0.00 | 0.00 | 0.00 | 48 | 1007.2 |
| 20260507163124 | 62 | 152 | 4.0 | 4.0 | 0.00 | 0.00 | 0.00 | 49 | 1007.5 |
| 20260507162620 | 62 | 157 | 3.0 | 8.0 | 0.00 | 0.00 | 0.00 | 49 | 1007.7 |
| 20260507162116 | 62 | 117 | 4.0 | 8.0 | 0.00 | 0.00 | 0.00 | 50 | 1007.8 |
| 20260507161613 | 61 | 282 | 3.0 | 6.0 | 0.00 | 0.00 | 0.00 | 53 | 1007.9 |
| 20260507161109 | 60 | 181 | 2.0 | 8.0 | 0.00 | 0.00 | 0.00 | 51 | 1008.0 |
| 20260507160606 | 61 | 166 | 1.0 | 3.0 | 0.00 | 0.00 | 0.00 | 50 | 1008.0 |
| 20260507155557 | 59 | 114 | 1.0 | 4.0 | 0.00 | 0.00 | 0.00 | 54 | 1008.4 |
| 20260507155055 | 59 | 110 | 3.0 | 3.0 | 0.00 | 0.00 | 0.00 | 54 | 1008.5 |
| 20260507154551 | 60 | 137 | 3.0 | 7.0 | 0.00 | 0.00 | 0.00 | 51 | 1008.6 |
| 20260507154049 | 59 | 38 | 3.0 | 6.0 | 0.00 | 0.00 | 0.00 | 55 | 1008.6 |
| 20260507153545 | 59 | 139 | 2.0 | 7.0 | 0.00 | 0.00 | 0.00 | 54 | 1008.4 |
| 20260507153041 | 59 | 107 | 3.0 | 7.0 | 0.00 | 0.00 | 0.00 | 55 | 1008.5 |
| 20260507152537 | 60 | 151 | 1.0 | 6.0 | 0.00 | 0.00 | 0.00 | 57 | 1008.7 |
| 20260507152034 | 60 | 339 | 8.0 | 9.0 | 0.00 | 0.00 | 0.00 | 55 | 1008.7 |
| 20260507151530 | 58 | 166 | 2.0 | 3.0 | 0.00 | 0.00 | 0.00 | 60 | 1008.6 |
| 20260507151027 | 56 | 87 | 2.0 | 3.0 | 0.00 | 0.00 | 0.00 | 62 | 1008.7 |
| 20260507150524 | 56 | 142 | 2.0 | 3.0 | 0.00 | 0.00 | 0.00 | 59 | 1008.7 |
| 20260507150021 | 55 | 72 | 5.0 | 6.0 | 0.00 | 0.00 | 0.00 | 60 | 1009.0 |
| 20260507145516 | 56 | 61 | 2.0 | 7.0 | 0.00 | 0.00 | 0.00 | 60 | 1008.9 |
| 20260507145014 | 55 | 124 | 3.0 | 4.0 | 0.00 | 0.00 | 0.00 | 61 | 1008.8 |
| 20260507144510 | 55 | 74 | 4.0 | 8.0 | 0.00 | 0.00 | 0.00 | 61 | 1009.0 |
| 20260507144008 | 55 | 91 | 3.0 | 6.0 | 0.00 | 0.00 | 0.00 | 64 | 1008.9 |
| 20260507143505 | 54 | 145 | 1.0 | 7.0 | 0.00 | 0.00 | 0.00 | 65 | 1008.9 |
| 20260507143002 | 54 | 156 | 0.0 | 6.0 | 0.00 | 0.00 | 0.00 | 65 | 1009.4 |
| 20260507142457 | 54 | 99 | 2.0 | 6.0 | 0.00 | 0.00 | 0.00 | 66 | 1009.3 |
| 20260507141955 | 54 | 153 | 0.0 | 3.0 | 0.00 | 0.00 | 0.00 | 67 | 1009.4 |
| 20260507141450 | 53 | 136 | 1.0 | 3.0 | 0.00 | 0.00 | 0.00 | 67 | 1009.4 |
| 20260507140947 | 53 | 178 | 2.0 | 4.0 | 0.00 | 0.00 | 0.00 | 68 | 1009.5 |
| 20260507140444 | 53 | 117 | 3.0 | 6.0 | 0.00 | 0.00 | 0.00 | 68 | 1009.5 |
| 20260507135941 | 53 | 116 | 3.0 | 6.0 | 0.00 | 0.00 | 0.00 | 68 | 1009.6 |
| 20260507135438 | 53 | 72 | 6.0 | 8.0 | 0.00 | 0.00 | 0.00 | 69 | 1009.3 |
| 20260507134936 | 53 | 16 | 2.0 | 4.0 | 0.00 | 0.00 | 0.00 | 69 | 1009.4 |
| 20260507134432 | 53 | 82 | 2.0 | 3.0 | 0.00 | 0.00 | 0.00 | 70 | 1009.6 |
| 20260507133928 | 53 | 77 | 4.0 | 9.0 | 0.00 | 0.00 | 0.00 | 71 | 1009.5 |
| 20260507133424 | 53 | 68 | 3.0 | 4.0 | 0.00 | 0.00 | 0.00 | 75 | 1009.5 |
| 20260507132923 | 53 | 69 | 2.0 | 7.0 | 0.00 | 0.00 | 0.00 | 75 | 1009.6 |
| 20260507132419 | 53 | 88 | 4.0 | 8.0 | 0.00 | 0.00 | 0.00 | 74 | 1009.6 |
| 20260507131915 | 53 | 151 | 1.0 | 6.0 | 0.00 | 0.00 | 0.00 | 75 | 1009.8 |
| 20260507131413 | 53 | 128 | 3.0 | 4.0 | 0.00 | 0.00 | 0.00 | 75 | 1009.8 |
| 20260507130909 | 53 | 162 | 1.0 | 3.0 | 0.00 | 0.00 | 0.00 | 75 | 1009.8 |
| 20260507130406 | 53 | 87 | 2.0 | 4.0 | 0.00 | 0.00 | 0.00 | 74 | 1009.7 |
| 20260507125905 | 53 | 136 | 1.0 | 3.0 | 0.00 | 0.00 | 0.00 | 75 | 1009.9 |
| 20260507125403 | 53 | 137 | 1.0 | 3.0 | 0.00 | 0.00 | 0.00 | 74 | 1009.7 |
| 20260507124900 | 53 | 71 | 5.0 | 9.0 | 0.00 | 0.00 | 0.00 | 73 | 1009.8 |
| 20260507124355 | 53 | 84 | 2.0 | 4.0 | 0.00 | 0.00 | 0.00 | 74 | 1009.8 |
| 20260507123854 | 53 | 150 | 2.0 | 4.0 | 0.00 | 0.00 | 0.00 | 74 | 1009.8 |
| 20260507123351 | 53 | 123 | 2.0 | 3.0 | 0.00 | 0.00 | 0.00 | 74 | 1009.8 |
| 20260507122847 | 53 | 111 | 5.0 | 7.0 | 0.00 | 0.00 | 0.00 | 74 | 1009.7 |
| 20260507122343 | 53 | 56 | 4.0 | 7.0 | 0.00 | 0.00 | 0.00 | 75 | 1009.5 |
| 20260507121839 | 53 | 106 | 2.0 | 3.0 | 0.00 | 0.00 | 0.00 | 75 | 1009.4 |
| 20260507121335 | 53 | 114 | 1.0 | 6.0 | 0.00 | 0.00 | 0.00 | 75 | 1009.2 |
| 20260507120832 | 53 | 78 | 3.0 | 7.0 | 0.00 | 0.00 | 0.00 | 75 | 1009.2 |
| 20260507120328 | 53 | 72 | 4.0 | 4.0 | 0.00 | 0.00 | 0.00 | 75 | 1009.3 |
| 20260507115824 | 53 | 87 | 2.0 | 3.0 | 0.00 | 0.00 | 0.00 | 76 | 1009.3 |
| 20260507115320 | 53 | 111 | 2.0 | 4.0 | 0.00 | 0.00 | 0.00 | 76 | 1009.3 |
| 20260507114816 | 53 | 143 | 3.0 | 4.0 | 0.00 | 0.00 | 0.00 | 76 | 1009.2 |
| 20260507114313 | 53 | 144 | 0.0 | 3.0 | 0.00 | 0.00 | 0.00 | 76 | 1009.2 |
| 20260507113811 | 53 | 144 | 0.0 | 2.0 | 0.00 | 0.00 | 0.00 | 77 | 1009.1 |
| 20260507113308 | 53 | 123 | 3.0 | 3.0 | 0.00 | 0.00 | 0.00 | 77 | 1009.1 |
| 20260507112805 | 53 | 135 | 1.0 | 2.0 | 0.00 | 0.00 | 0.00 | 77 | 1008.9 |
| 20260507112306 | 53 | 142 | 1.0 | 3.0 | 0.00 | 0.00 | 0.00 | 77 | 1009.1 |
| 20260507111800 | 53 | 91 | 2.0 | 3.0 | 0.00 | 0.00 | 0.00 | 77 | 1009.1 |
| 20260507111256 | 53 | 113 | 2.0 | 3.0 | 0.00 | 0.00 | 0.00 | 77 | 1009.2 |
| 20260507110752 | 53 | 137 | 0.0 | 2.0 | 0.00 | 0.00 | 0.00 | 78 | 1009.1 |
| 20260507110249 | 53 | 145 | 0.0 | 2.0 | 0.00 | 0.00 | 0.00 | 79 | 1008.8 |
| 20260507105746 | 53 | 135 | 2.0 | 3.0 | 0.00 | 0.00 | 0.00 | 79 | 1008.8 |
| 20260507105241 | 53 | 120 | 2.0 | 3.0 | 0.00 | 0.00 | 0.00 | 79 | 1008.7 |
| 20260507104739 | 52 | 137 | 1.0 | 2.0 | 0.00 | 0.00 | 0.00 | 79 | 1008.6 |
| 20260507104236 | 52 | 152 | 1.0 | 1.0 | 0.00 | 0.00 | 0.00 | 79 | 1008.9 |
| 20260507103732 | 52 | 146 | 0.0 | 0.0 | 0.00 | 0.00 | 0.00 | 79 | 1008.7 |
| 20260507103228 | 52 | 145 | 0.0 | 1.0 | 0.00 | 0.00 | 0.00 | 79 | 1008.7 |
| 20260507102725 | 52 | 149 | 0.0 | 0.0 | 0.00 | 0.00 | 0.00 | 79 | 1008.8 |
| 20260507102221 | 52 | 148 | 0.0 | 0.0 | 0.00 | 0.00 | 0.00 | 79 | 1008.7 |
| 20260507101717 | 52 | 150 | 0.0 | 0.0 | 0.00 | 0.00 | 0.00 | 79 | 1008.6 |
| 20260507101213 | 52 | 145 | 1.0 | 2.0 | 0.00 | 0.00 | 0.00 | 79 | 1008.6 |
| 20260507100710 | 52 | 148 | 1.0 | 2.0 | 0.00 | 0.00 | 0.00 | 79 | 1008.7 |
| 20260507100208 | 52 | 146 | 0.0 | 0.0 | 0.00 | 0.00 | 0.00 | 79 | 1008.6 |
| 20260507095706 | 52 | 149 | 0.0 | 1.0 | 0.00 | 0.00 | 0.00 | 78 | 1008.5 |
| 20260507095202 | 52 | 120 | 1.0 | 1.0 | 0.00 | 0.00 | 0.00 | 78 | 1008.6 |
| 20260507094659 | 52 | 149 | 0.0 | 1.0 | 0.00 | 0.00 | 0.00 | 78 | 1008.4 |
| 20260507094156 | 52 | 146 | 1.0 | 1.0 | 0.00 | 0.00 | 0.00 | 77 | 1008.5 |
| 20260507093653 | 53 | 148 | 0.0 | 1.0 | 0.00 | 0.00 | 0.00 | 77 | 1008.6 |
| 20260507093152 | 53 | 137 | 1.0 | 3.0 | 0.00 | 0.00 | 0.00 | 77 | 1008.4 |
| 20260507092648 | 52 | 146 | 1.0 | 2.0 | 0.00 | 0.00 | 0.00 | 77 | 1008.5 |
| 20260507092144 | 53 | 145 | 0.0 | 2.0 | 0.00 | 0.00 | 0.00 | 77 | 1008.5 |
| 20260507091641 | 53 | 141 | 0.0 | 2.0 | 0.00 | 0.00 | 0.00 | 78 | 1008.4 |
| 20260507091137 | 53 | 140 | 1.0 | 2.0 | 0.00 | 0.00 | 0.00 | 77 | 1008.5 |
| 20260507090633 | 53 | 125 | 0.0 | 1.0 | 0.00 | 0.00 | 0.00 | 78 | 1008.5 |
| 20260507090131 | 53 | 134 | 2.0 | 2.0 | 0.00 | 0.00 | 0.00 | 78 | 1008.3 |
| 20260507085628 | 53 | 150 | 0.0 | 3.0 | 0.00 | 0.00 | 0.00 | 78 | 1008.2 |
| 20260507085124 | 53 | 104 | 3.0 | 3.0 | 0.00 | 0.00 | 0.00 | 78 | 1008.2 |
| 20260507084621 | 53 | 141 | 1.0 | 3.0 | 0.00 | 0.00 | 0.00 | 79 | 1008.3 |
| 20260507084118 | 53 | 143 | 2.0 | 2.0 | 0.00 | 0.00 | 0.00 | 79 | 1008.3 |
| 20260507083615 | 53 | 145 | 0.0 | 3.0 | 0.00 | 0.00 | 0.00 | 79 | 1007.9 |
| 20260507083112 | 53 | 146 | 1.0 | 3.0 | 0.00 | 0.00 | 0.00 | 79 | 1008.2 |
| 20260507082607 | 53 | 157 | 1.0 | 3.0 | 0.00 | 0.00 | 0.00 | 79 | 1008.3 |
| 20260507082104 | 53 | 122 | 2.0 | 3.0 | 0.00 | 0.00 | 0.00 | 79 | 1008.2 |
| 20260507081600 | 53 | 128 | 1.0 | 2.0 | 0.00 | 0.00 | 0.00 | 80 | 1008.2 |
| 20260507081057 | 53 | 148 | 2.0 | 3.0 | 0.00 | 0.00 | 0.00 | 80 | 1008.5 |
| 20260507080553 | 53 | 135 | 1.0 | 2.0 | 0.00 | 0.00 | 0.00 | 80 | 1008.6 |
| 20260507080050 | 53 | 128 | 2.0 | 4.0 | 0.00 | 0.00 | 0.00 | 79 | 1008.7 |
| 20260507075545 | 53 | 119 | 2.0 | 7.0 | 0.00 | 0.00 | 0.00 | 79 | 1008.6 |
| 20260507075041 | 53 | 127 | 2.0 | 4.0 | 0.00 | 0.00 | 0.00 | 79 | 1008.4 |
| 20260507074538 | 53 | 144 | 0.0 | 1.0 | 0.00 | 0.00 | 0.00 | 80 | 1008.3 |
| 20260507074037 | 53 | 157 | 1.0 | 4.0 | 0.00 | 0.00 | 0.00 | 79 | 1008.3 |
| 20260507073532 | 54 | 120 | 3.0 | 9.0 | 0.00 | 0.00 | 0.00 | 79 | 1008.3 |
| 20260507073029 | 54 | 102 | 3.0 | 4.0 | 0.00 | 0.00 | 0.00 | 80 | 1008.3 |
| 20260507072527 | 54 | 93 | 2.0 | 6.0 | 0.00 | 0.00 | 0.00 | 80 | 1008.3 |
| 20260507072024 | 54 | 187 | 2.0 | 4.0 | 0.00 | 0.00 | 0.00 | 80 | 1007.9 |
| 20260507071521 | 54 | 71 | 6.0 | 7.0 | 0.00 | 0.00 | 0.00 | 79 | 1007.7 |
| 20260507071018 | 54 | 96 | 2.0 | 7.0 | 0.00 | 0.00 | 0.00 | 80 | 1007.9 |
| 20260507070515 | 54 | 93 | 1.0 | 6.0 | 0.00 | 0.00 | 0.00 | 80 | 1007.8 |
| 20260507070013 | 54 | 28 | 9.0 | 11.0 | 0.00 | 0.00 | 0.00 | 80 | 1007.8 |
| 20260507065508 | 54 | 104 | 4.0 | 10.0 | 0.00 | 0.00 | 0.00 | 80 | 1007.9 |
| 20260507065005 | 55 | 104 | 3.0 | 10.0 | 0.00 | 0.00 | 0.00 | 81 | 1007.8 |
| 20260507064504 | 55 | 90 | 5.0 | 8.0 | 0.00 | 0.00 | 0.00 | 81 | 1007.7 |
| 20260507064001 | 55 | 88 | 4.0 | 4.0 | 0.00 | 0.00 | 0.00 | 81 | 1007.9 |
| 20260507063458 | 55 | 143 | 3.0 | 7.0 | 0.00 | 0.00 | 0.00 | 82 | 1008.0 |
| 20260507062955 | 56 | 82 | 2.0 | 8.0 | 0.00 | 0.00 | 0.00 | 82 | 1008.1 |
| 20260507062452 | 56 | 122 | 1.0 | 6.0 | 0.00 | 0.00 | 0.00 | 83 | 1008.0 |
| 20260507061950 | 56 | 98 | 3.0 | 4.0 | 0.00 | 0.00 | 0.00 | 84 | 1007.9 |
| 20260507061447 | 56 | 135 | 2.0 | 2.0 | 0.00 | 0.00 | 0.00 | 86 | 1007.9 |
| 20260507060946 | 56 | 134 | 2.0 | 4.0 | 0.00 | 0.00 | 0.00 | 86 | 1007.8 |
| 20260507060442 | 56 | 127 | 3.0 | 3.0 | 0.00 | 0.00 | 0.00 | 87 | 1007.8 |
| 20260507055939 | 56 | 123 | 3.0 | 6.0 | 0.00 | 0.00 | 0.00 | 87 | 1008.0 |
| 20260507055434 | 56 | 145 | 1.0 | 3.0 | 0.00 | 0.00 | 0.00 | 86 | 1008.2 |
| 20260507054931 | 56 | 146 | 2.0 | 4.0 | 0.00 | 0.00 | 0.00 | 86 | 1008.3 |
| 20260507054427 | 56 | 154 | 2.0 | 4.0 | 0.00 | 0.00 | 0.00 | 87 | 1008.4 |
| 20260507053925 | 57 | 130 | 2.0 | 4.0 | 0.00 | 0.00 | 0.00 | 87 | 1008.0 |
| 20260507053422 | 57 | 134 | 1.0 | 2.0 | 0.00 | 0.00 | 0.00 | 87 | 1008.1 |
| 20260507052921 | 57 | 147 | 1.0 | 2.0 | 0.00 | 0.00 | 0.00 | 86 | 1008.0 |
| 20260507052418 | 57 | 136 | 3.0 | 4.0 | 0.00 | 0.00 | 0.00 | 86 | 1007.6 |
| 20260507051914 | 57 | 112 | 4.0 | 7.0 | 0.00 | 0.00 | 0.00 | 87 | 1007.6 |
| 20260507051412 | 57 | 96 | 2.0 | 3.0 | 0.00 | 0.00 | 0.00 | 88 | 1007.8 |
| 20260507050909 | 57 | 67 | 3.0 | 4.0 | 0.00 | 0.00 | 0.00 | 87 | 1007.5 |
| 20260507050405 | 57 | 110 | 2.0 | 3.0 | 0.00 | 0.00 | 0.00 | 88 | 1007.6 |
| 20260507045902 | 57 | 137 | 2.0 | 3.0 | 0.00 | 0.00 | 0.00 | 88 | 1007.8 |
| 20260507045359 | 57 | 75 | 4.0 | 8.0 | 0.00 | 0.00 | 0.00 | 88 | 1007.5 |
| 20260507044856 | 57 | 33 | 4.0 | 7.0 | 0.00 | 0.00 | 0.00 | 89 | 1007.3 |
| 20260507044353 | 57 | 129 | 1.0 | 7.0 | 0.00 | 0.00 | 0.00 | 90 | 1007.1 |
| 20260507043848 | 57 | 125 | 0.0 | 2.0 | 0.00 | 0.00 | 0.00 | 90 | 1007.3 |
| 20260507043345 | 57 | 151 | 1.0 | 6.0 | 0.00 | 0.00 | 0.00 | 90 | 1007.3 |
| 20260507042842 | 57 | 127 | 1.0 | 6.0 | 0.00 | 0.00 | 0.00 | 90 | 1007.1 |
| 20260507042337 | 58 | 101 | 1.0 | 4.0 | 0.00 | 0.00 | 0.00 | 90 | 1006.6 |
| 20260507041834 | 58 | 89 | 4.0 | 6.0 | 0.00 | 0.00 | 0.00 | 90 | 1006.8 |
| 20260507041331 | 58 | 155 | 1.0 | 4.0 | 0.00 | 0.00 | 0.00 | 89 | 1006.5 |
| 20260507040828 | 59 | 134 | 4.0 | 11.0 | 0.00 | 0.00 | 0.00 | 90 | 1006.2 |
| 20260507040324 | 59 | 162 | 5.0 | 7.0 | 0.00 | 0.00 | 0.00 | 90 | 1006.4 |
| 20260507035820 | 59 | 129 | 2.0 | 4.0 | 0.00 | 0.13 | 0.13 | 89 | 1007.0 |
| 20260507035316 | 59 | 148 | 4.0 | 7.0 | 0.00 | 0.13 | 0.13 | 89 | 1007.1 |
| 20260507034814 | 60 | 79 | 1.0 | 2.0 | 0.00 | 0.13 | 0.13 | 88 | 1007.6 |
| 20260507034310 | 60 | 132 | 2.0 | 3.0 | 0.12 | 0.13 | 0.13 | 87 | 1007.5 |
| 20260507033809 | 61 | 147 | 1.0 | 3.0 | 0.38 | 0.13 | 0.13 | 86 | 1007.8 |
| 20260507033306 | 62 | 95 | 2.0 | 6.0 | 0.19 | 0.10 | 0.10 | 84 | 1007.6 |
| 20260507032803 | 62 | 137 | 1.0 | 2.0 | 0.00 | 0.07 | 0.07 | 83 | 1007.8 |
| 20260507032259 | 62 | 142 | 1.0 | 3.0 | 0.00 | 0.07 | 0.07 | 83 | 1007.7 |
| 20260507031755 | 62 | 161 | 0.0 | 2.0 | 0.00 | 0.07 | 0.07 | 83 | 1007.3 |
| 20260507031252 | 62 | 141 | 1.0 | 2.0 | 0.00 | 0.07 | 0.07 | 82 | 1007.2 |
| 20260507030749 | 62 | 135 | 0.0 | 3.0 | 0.00 | 0.07 | 0.07 | 82 | 1007.2 |
| 20260507030246 | 62 | 155 | 2.0 | 3.0 | 0.00 | 0.07 | 0.07 | 83 | 1006.9 |
| 20260507025743 | 62 | 145 | 0.0 | 0.0 | 0.00 | 0.07 | 0.07 | 83 | 1007.3 |
| 20260507025240 | 62 | 114 | 1.0 | 1.0 | 0.00 | 0.07 | 0.07 | 83 | 1007.1 |
| 20260507024739 | 63 | 138 | 0.0 | 2.0 | 0.00 | 0.07 | 0.07 | 83 | 1007.3 |
| 20260507024236 | 63 | 107 | 2.0 | 3.0 | 0.00 | 0.07 | 0.07 | 82 | 1007.1 |
| 20260507023731 | 63 | 133 | 1.0 | 1.0 | 0.00 | 0.07 | 0.07 | 81 | 1007.5 |
| 20260507023229 | 63 | 132 | 0.0 | 2.0 | 0.00 | 0.07 | 0.07 | 80 | 1007.1 |
| 20260507022726 | 63 | 133 | 1.0 | 1.0 | 0.00 | 0.07 | 0.07 | 79 | 1007.0 |
| 20260507022221 | 63 | 172 | 1.0 | 2.0 | 0.00 | 0.07 | 0.07 | 79 | 1007.0 |
| 20260507021718 | 63 | 149 | 0.0 | 1.0 | 0.00 | 0.07 | 0.07 | 79 | 1006.8 |
| 20260507021213 | 64 | 155 | 1.0 | 3.0 | 0.00 | 0.07 | 0.07 | 79 | 1006.6 |
| 20260507020712 | 64 | 157 | 2.0 | 4.0 | 0.00 | 0.07 | 0.07 | 78 | 1006.4 |
| 20260507020208 | 64 | 149 | 0.0 | 0.0 | 0.00 | 0.07 | 0.07 | 78 | 1006.2 |
| 20260507015706 | 64 | 126 | 1.0 | 3.0 | 0.00 | 0.07 | 0.07 | 78 | 1006.3 |
| 20260507015203 | 64 | 127 | 2.0 | 2.0 | 0.00 | 0.07 | 0.07 | 79 | 1006.6 |
| 20260507014659 | 64 | 72 | 2.0 | 3.0 | 0.00 | 0.07 | 0.07 | 79 | 1006.7 |
| 20260507014155 | 64 | 135 | 1.0 | 2.0 | 0.00 | 0.07 | 0.07 | 79 | 1006.8 |
| 20260507013653 | 64 | 144 | 1.0 | 2.0 | 0.00 | 0.07 | 0.07 | 79 | 1006.8 |
| 20260507013150 | 64 | 91 | 2.0 | 3.0 | 0.00 | 0.07 | 0.07 | 79 | 1006.7 |
| 20260507012648 | 64 | 150 | 1.0 | 2.0 | 0.00 | 0.07 | 0.07 | 79 | 1006.4 |
| 20260507012142 | 64 | 141 | 2.0 | 4.0 | 0.00 | 0.07 | 0.07 | 79 | 1006.2 |
| 20260507011641 | 64 | 171 | 4.0 | 6.0 | 0.00 | 0.07 | 0.07 | 79 | 1006.0 |
| 20260507011137 | 65 | 135 | 5.0 | 7.0 | 0.00 | 0.07 | 0.07 | 78 | 1005.9 |
| 20260507010631 | 65 | 145 | 5.0 | 7.0 | 0.00 | 0.07 | 0.07 | 77 | 1005.7 |
| 20260507010128 | 66 | 137 | 1.0 | 4.0 | 0.00 | 0.07 | 0.07 | 75 | 1006.3 |
| 20260507005625 | 66 | 142 | 4.0 | 6.0 | 0.00 | 0.07 | 0.07 | 73 | 1006.4 |
| 20260507005121 | 66 | 157 | 2.0 | 3.0 | 0.00 | 0.07 | 0.07 | 75 | 1006.2 |
| 20260507004618 | 66 | 154 | 1.0 | 3.0 | 0.00 | 0.07 | 0.07 | 76 | 1006.7 |
| 20260507004116 | 66 | 160 | 1.0 | 3.0 | 0.00 | 0.07 | 0.07 | 75 | 1006.8 |
| 20260507003612 | 66 | 130 | 2.0 | 3.0 | 0.00 | 0.07 | 0.07 | 73 | 1006.5 |
| 20260507003107 | 66 | 140 | 2.0 | 2.0 | 0.00 | 0.07 | 0.07 | 74 | 1006.7 |
| 20260507002603 | 66 | 146 | 1.0 | 6.0 | 0.00 | 0.07 | 0.07 | 74 | 1006.5 |
| 20260507002059 | 67 | 130 | 2.0 | 3.0 | 0.00 | 0.07 | 0.07 | 75 | 1006.4 |
| 20260507001556 | 67 | 145 | 4.0 | 7.0 | 0.00 | 0.07 | 0.07 | 75 | 1006.4 |
| 20260507001054 | 67 | 138 | 3.0 | 3.0 | 0.00 | 0.07 | 0.07 | 73 | 1006.4 |
| 20260507000550 | 67 | 86 | 1.0 | 4.0 | 0.00 | 0.07 | 0.07 | 73 | 1006.3 |
| 20260507000045 | 68 | 117 | 0.0 | 2.0 | 0.00 | 0.07 | 0.07 | 73 | 1006.1 |
| 20260506235543 | 68 | 176 | 0.0 | 3.0 | 0.00 | 0.07 | 0.07 | 74 | 1005.9 |
| 20260506235038 | 68 | 132 | 2.0 | 4.0 | 0.00 | 0.07 | 0.07 | 74 | 1005.9 |
| 20260506234536 | 68 | 130 | 2.0 | 2.0 | 0.00 | 0.07 | 0.07 | 77 | 1005.8 |
| 20260506234033 | 68 | 115 | 1.0 | 1.0 | 0.00 | 0.07 | 0.07 | 78 | 1005.9 |
| 20260506233530 | 69 | 111 | 2.0 | 2.0 | 0.00 | 0.07 | 0.07 | 77 | 1005.6 |
| 20260506233027 | 69 | 147 | 1.0 | 1.0 | 0.00 | 0.07 | 0.07 | 77 | 1005.6 |
| 20260506232523 | 69 | 46 | 2.0 | 3.0 | 0.00 | 0.07 | 0.07 | 76 | 1005.5 |
| 20260506232018 | 69 | 143 | 0.0 | 2.0 | 0.00 | 0.07 | 0.07 | 76 | 1005.5 |